Location: Newark
(44.6028°N, 124.0883°W)
Time: 06:55:53
(UTC+00:00)

OTV 5 (USA 277) - Pass Details

Date: 01 October 2019
Orbit: 310 x 324 km, 54.5° (Epoch: 17 October)

Event Time Altitude Azimuth Distance (km) Brightness Sun altitude
Exits shadow 12:40:24 - 171° (S) 1,458 ? -17.4°
Reaches altitude 10° 12:41:21 10° 155° (SSE) 1,234 ? -17.2°
Maximum altitude 12:42:33 12° 129° (SE) 1,121 ? -17.0°
Drops below altitude 10° 12:43:45 10° 103° (ESE) 1,237 ? -16.8°
Sets 12:46:34 0° 71° (ENE) 2,074 ? -16.3°
